STARLINK-33611, 63279

Orbit data source: Space-Track

STARLINK-33611, 63279 is a payload satellite owned by SpaceX/Seattle (US) in LEO that was launched on Sat, 15 Mar 2025 UTC via an FALCON 9 launch vehicle from the Air Force Eastern Test Range (AFETR). Payload-class satellites include a variety of spacecraft equipped with specific instruments for various scientific and technological missions. These include communications satellites like Starlink; space stations such as the ISS; scientific satellites like the Hubble; Earth observation satellites from companies like Planet Labs, Umbra, and HawkEye 360; GPS; miniature CubeSats for education and research; and military/defense satellites.

Loading next visibility...
Identifier
63279, 2025-053Q
Orbit
LEO
Country
Flag of USUS
Related business
Manufacturer
SpaceX/Seattle
Mission
Operational Commercial Communications
Bus & Motor
STARLINK V2MO, Unknown motor
Mass
575 kg wet, ~530 kg dry
Launch date (UTC)
2025-03-15 (1 year ago)
Launch vehicle
FALCON 9
Launch site
Air Force Eastern Test Range (AFETR)
Object type
Payload
Rocket body
Debris
Shape & HBR
Box + 2 Pan, 17.7 m
Radar Cross Section
36.964 m², Large (>1 m²)

Expand to show TLE details & history
Last TLE update: 20 hours ago

TLE from 20 hours ago
0 STARLINK-33611
1 63279U 25053Q   26171.00717693  .00020497  00000-0  75208-3 0  9999
2 63279  43.0012  20.3036 0001348   1.7471 358.3385 15.27589744 71992
Epoch: 2026-06-20T00:10Z
TLE epoch observation values (Epoch: 2026-06-20T00:10:20.086Z)
Latitude
-0.00004°
Longitude
109.49188°
Altitude
481.871 km
Speed
7.627 km/s
True Right ascension
01h 21m 12s
True Declination
0° 00' 00"
Sunlit
Object was in daylight at epoch
Visualization orbit readout
Latitude
Unknown
Longitude
Unknown
Altitude
Unknown
Speed
Unknown
Apparent Right ascension
Unknown
Apparent Declination
Unknown
Sunlit
N/A
Visualization observer readout
Local Sidereal Time
07:14:57
Azimuth
Unknown
Elevation
Unknown
Doppler factor
Unknown
Orbital elements
Apogee altitude
485.89 km
Perigee altitude
484.04 km
Semi-major axis
6,863.102 km
Eccentricity
0.00013
Inclination
43.0012°
RAAN
20.3036°
Arg. of periapsis
1.7471°
True anomaly
358.33805°
Mean anomaly
358.3385°
Eccentric anomaly
358.33828°
Mean motion
3.81735 °/min
Orbital period
94.31 mins
BSTAR
0.00075208
Loading maneuver chart data...
Computing Atmospheric mass density...
Loading historical data...
Loading historical data...
Loading historical data...
Loading historical data...
Loading historical data...
Loading historical data...
Loading historical data...

Documentation

Showing up to 5 results
|